Location: *
(48.9668°S, 177.1580°W)
Time: 04:51:03
(UTC+00:00)

Daily predictions for brighter satellites

Satellite Brightness Start Highest point End
(mag) Time Altitude Azimuth Time Altitude Azimuth Time Altitude Azimuth
SL-16 R/B 4.4 04:37:09 10° WSW 04:39:57 14° SSW 04:42:45 10° S
[s.n.52705] 2.7 04:37:11 10° WNW 04:40:07 82° NNE 04:43:03 10° ESE
[s.n.52706] 2.7 04:37:18 10° WNW 04:40:13 82° NNE 04:43:10 10° ESE
[s.n.52701] 2.7 04:37:25 10° WNW 04:40:20 82° NNE 04:43:17 10° ESE
[s.n.52704] 2.7 04:37:31 10° WNW 04:40:27 83° NNE 04:43:24 10° ESE
[s.n.52699] 2.7 04:37:38 10° WNW 04:40:34 83° NNE 04:43:31 10° ESE
[s.n.52702] 2.7 04:37:44 10° WNW 04:40:41 83° NNE 04:43:38 10° ESE
[s.n.52697] 2.7 04:37:51 10° WNW 04:40:47 83° NNE 04:43:45 10° ESE
[s.n.52700] 2.7 04:37:58 10° WNW 04:40:54 83° NNE 04:43:51 10° ESE
[s.n.52695] 2.7 04:38:05 10° WNW 04:41:01 83° NNE 04:43:58 10° ESE
[s.n.52698] 2.7 04:38:11 10° WNW 04:41:08 84° NNE 04:44:05 10° ESE
[s.n.52693] 2.7 04:38:18 10° WNW 04:41:15 84° NNE 04:44:12 10° ESE
[s.n.52696] 2.7 04:38:25 10° WNW 04:41:21 84° NNE 04:44:18 10° ESE
[s.n.52691] 2.7 04:38:31 10° WNW 04:41:27 84° NNE 04:44:25 10° ESE
[s.n.52689] 2.7 04:38:39 10° WNW 04:41:35 84° NNE 04:44:32 10° ESE
[s.n.52694] 2.7 04:38:45 10° WNW 04:41:41 84° NNE 04:44:39 10° ESE
[s.n.52692] 2.7 04:38:52 10° WNW 04:41:48 84° NNE 04:44:46 10° ESE
[s.n.52687] 2.7 04:38:59 10° WNW 04:41:55 85° NNE 04:44:52 10° ESE
[s.n.52685] 2.7 04:39:05 10° WNW 04:42:02 85° NNE 04:44:59 10° ESE
[s.n.52690] 2.7 04:39:12 10° WNW 04:42:09 85° NNE 04:45:06 10° ESE
[s.n.52688] 2.7 04:39:19 10° WNW 04:42:15 85° NNE 04:45:13 10° ESE
[s.n.52683] 2.7 04:39:25 10° WNW 04:42:22 85° NNE 04:45:19 10° ESE
[s.n.52686] 2.7 04:39:33 10° WNW 04:42:30 85° NNE 04:45:27 10° ESE
[s.n.52681] 2.7 04:39:40 10° WNW 04:42:36 85° NNE 04:45:34 10° ESE
[s.n.52679] 2.7 04:39:47 10° WNW 04:42:43 86° NNE 04:45:41 10° ESE
Cosmos 1980 Rocket 3.1 04:37:54 10° SSW 04:42:44 28° SE 04:47:31 10° ENE
[s.n.52684] 2.7 04:39:54 10° WNW 04:42:50 86° NNE 04:45:48 10° ESE
[s.n.52682] 2.7 04:40:00 10° WNW 04:42:57 86° NNE 04:45:54 10° ESE
[s.n.52677] 2.7 04:40:07 10° WNW 04:43:04 86° NNE 04:46:01 10° ESE
[s.n.52680] 2.7 04:40:15 10° WNW 04:43:12 86° NNE 04:46:09 10° ESE
USA 215 3.3 04:36:39 10° ENE 04:43:14 71° SSE 04:49:50 10° SW
[s.n.52675] 2.7 04:40:21 10° WNW 04:43:18 86° NNE 04:46:16 10° ESE
[s.n.52678] 2.7 04:40:29 10° WNW 04:43:25 87° NNE 04:46:23 10° ESE
[s.n.52673] 2.7 04:40:36 10° WNW 04:43:32 87° NNE 04:46:31 10° ESE
[s.n.52676] 2.7 04:40:43 10° WNW 04:43:39 87° NNE 04:46:36 10° ESE
[s.n.52671] 2.7 04:40:50 10° WNW 04:43:46 87° NNE 04:46:44 10° ESE
[s.n.52669] 2.7 04:40:56 10° WNW 04:43:53 87° NNE 04:46:51 10° ESE
[s.n.52674] 2.7 04:41:03 10° WNW 04:44:00 87° NNE 04:46:58 10° ESE
[s.n.52672] 2.7 04:41:10 10° WNW 04:44:07 87° NNE 04:47:04 10° ESE
Cosmos 1842 Rocket 4.2 04:39:59 10° S 04:44:08 34° ESE 04:48:12 10° NE
[s.n.52667] 2.7 04:41:17 10° WNW 04:44:14 88° NNE 04:47:12 10° ESE
[s.n.52665] 2.7 04:41:24 10° WNW 04:44:21 88° NNE 04:47:19 10° ESE
[s.n.52670] 2.7 04:41:32 10° WNW 04:44:28 88° NNE 04:47:27 10° ESE
[s.n.52668] 2.7 04:41:38 10° WNW 04:44:35 88° NNE 04:47:34 10° ESE
[s.n.52666] 2.7 04:41:45 10° WNW 04:44:43 88° NE 04:47:41 10° ESE
[s.n.52663] 2.7 04:41:52 10° WNW 04:44:49 88° NNE 04:47:48 10° ESE
[s.n.52662] 2.7 04:42:00 10° WNW 04:44:56 88° N 04:47:55 10° ESE
[s.n.52664] 2.7 04:42:07 10° WNW 04:45:04 89° NNE 04:48:02 10° ESE
[s.n.52661] 2.7 04:42:14 10° WNW 04:45:11 89° NE 04:48:10 10° ESE
[s.n.52660] 2.7 04:42:21 10° WNW 04:45:19 89° NE 04:48:17 10° ESE
[s.n.52656] 2.7 04:42:28 10° WNW 04:45:25 89° NNE 04:48:24 10° ESE
[s.n.52658] 2.7 04:42:36 10° WNW 04:45:33 89° NNE 04:48:31 10° ESE
[s.n.52659] 2.7 04:42:42 10° WNW 04:45:39 89° NNE 04:48:38 10° ESE
[s.n.52657] 2.7 04:42:50 10° WNW 04:45:47 90° N 04:48:46 10° ESE
APEX 4.3 04:44:27 10° WNW 04:46:55 27° SW 04:49:39 10° S
CZ-4B R/B 3.5 04:42:10 10° SSE 04:47:09 84° WSW 04:51:59 10° NNW
SKYMED 2 3.6 04:43:48 10° NNE 04:48:10 73° ESE 04:52:36 10° S
Cosmos 2322 Rocket 4.1 04:46:48 10° S 04:48:57 12° SSE 04:51:06 10° SE
H-2A R/B 2.8 04:45:15 10° SSE 04:49:09 86° ENE 04:53:03 10° NNW
Cosmos 2369 4.4 04:45:46 10° SSW 04:51:00 34° SE 04:56:11 10° ENE
Cosmos 1110 Rocket 4.1 04:46:39 10° NNW 04:51:58 72° ENE 04:57:20 10° SSE
Landsat 4 4.2 04:49:00 10° S 04:52:49 64° WSW 04:56:35 10° NNW
Cosmos 1825 Rocket 3.7 04:49:10 10° NNW 04:53:35 82° W 04:58:06 10° S
SJ-12 4.0 04:49:30 10° SSE 04:53:44 68° ENE 04:57:53 10° N
Cosmos 1340 Rocket 3.7 04:51:00 10° NNE 04:54:31 30° E 04:58:08 10° SSE
USA 308 3.2 04:50:50 10° WSW 04:54:58 49° SSE 04:59:06 10° E
NOAA 11 4.3 04:49:53 10° SSE 04:55:22 61° E 05:00:48 10° N
Cosmos 2082 Rocket 3.7 04:52:13 10° NE 04:55:40 17° E 04:59:05 10° ESE
Cosmos 2221 2.7 04:51:18 10° S 04:55:43 55° ESE 05:00:04 10° NNE
Cosmos 1605 Rocket 4.2 04:52:31 10° S 04:58:57 83° W 05:05:13 10° N
Cosmos 1302 Rocket 4.5 04:56:59 10° N 05:01:52 41° ENE 05:06:50 10° SE
Cosmos 1697 Rocket 2.8 04:56:41 10° SSW 05:02:20 60° ESE 05:07:57 10° NE
YAOGAN 6 3.8 04:59:57 10° S 05:03:24 42° WSW 05:06:46 10° NW
H-2A R/B 4.1 05:04:51 10° SE 05:04:51 10° SE 05:05:21 10° SE
Cosmos 1331 Rocket 4.0 05:00:04 10° NNW 05:05:20 84° ENE 05:10:37 10° SSE
Cosmos 2360 4.3 04:59:53 10° SSW 05:05:38 61° ESE 05:11:18 10° NE
Meteor 1-31 Rocket 3.0 05:06:24 10° SSE 05:10:21 54° E 05:14:14 10° N
CZ-2C R/B 2.9 05:06:36 10° SSE 05:11:28 86° ENE 05:16:22 10° NNW
Cosmos 1939 Rocket 3.3 05:14:12 10° SSE 05:17:54 37° E 05:21:32 10° NNE
Lacrosse 5 2.9 05:13:23 10° WSW 05:18:04 33° S 05:21:34 16° ESE
USA 305 2.9 05:14:15 10° WSW 05:18:28 62° SSE 05:21:57 15° E
Cosmos 1933 3.6 05:14:49 10° S 05:18:48 46° ESE 05:22:43 10° NNE
Cosmos 2058 3.8 05:15:26 10° NNW 05:19:33 52° WSW 05:23:43 10° S
Cosmos 1782 3.3 05:17:38 10° S 05:21:25 37° ESE 05:25:08 10° NE
CZ-4B R/B 4.1 05:22:32 10° SSE 05:27:06 86° ENE 05:31:30 10° NNW
COSMOS 2406 3.7 05:22:30 10° N 05:27:48 41° ENE 05:32:10 15° SE
SL-16 R/B 3.5 05:24:48 10° S 05:29:06 21° SE 05:30:51 19° ESE
DMSP B5D2-2 4.4 05:24:00 10° N 05:29:16 71° WNW 05:34:35 10° SSW
Cosmos 2173 Rocket 4.0 05:24:01 10° S 05:30:27 68° ESE 05:36:44 10° NNE
Lacrosse 5 rocket 2.7 05:28:09 10° WSW 05:31:39 26° S 05:33:30 18° SE
BREEZE M DEB (TANK) 3.7 05:30:25 10° N 05:31:55 17° NE 05:32:09 16° NE
Cosmos 2016 Rocket 4.2 05:26:09 10° S 05:32:11 47° ESE 05:38:13 10° NNE
CZ-4B R/B 3.6 05:33:55 24° ESE 05:34:56 28° E 05:38:15 10° NNE
SeaSat 1 4.2 05:30:48 10° SSE 05:35:00 28° SW 05:39:09 10° WNW
Cosmos 1607 4.0 05:29:24 10° NNW 05:35:41 82° NE 05:41:09 15° SE
COSMO-SKYMED 1 4.2 05:32:17 10° NNW 05:36:23 38° W 05:40:32 10° SSW
Cosmos 1727 Rocket 4.0 05:30:20 10° N 05:36:37 87° W 05:42:57 10° S
Lacrosse 4 Rocket 3.2 05:33:07 10° WNW 05:36:50 28° SW 05:40:40 10° SSE
Cosmos 1503 Rocket 4.4 05:37:24 10° SSW 05:42:19 39° ESE 05:46:47 12° NE
Cosmos 1802 Rocket 4.0 05:37:12 10° S 05:43:40 67° ESE 05:50:06 10° NNE
Orbus 7S? 3.8 05:39:50 10° SW 05:44:04 34° SSE 05:44:48 30° SE
NOAA 12 4.1 05:40:13 10° SSE 05:45:36 71° ENE 05:50:55 10° N
Cosmos 968 Rocket 4.0 05:41:38 10° SSW 05:46:56 65° WNW 05:52:09 10° N
Meteor 2-3 Rocket 3.6 05:42:50 10° N 05:48:27 77° E 05:54:12 10° SSE
Cosmos 2278 3.9 05:44:40 10° SSW 05:50:13 47° SE 05:54:46 15° NE
ATLAS 2AS CENTAUR R/B 3.4 05:44:14 10° SW 05:51:10 60° WNW 05:58:29 10° NNE
Cosmos 1833 Rocket 2.7 05:45:31 10° NNW 05:51:13 88° WSW 05:56:14 14° SSE
H-2A R/B 2.2 05:48:40 13° SSE 05:52:52 46° E 05:57:36 10° N
Cosmos 2151 2.9 05:49:33 10° N 05:53:53 72° E 05:58:15 10° SSE
Cosmos 2360 Rocket 3.7 05:51:04 10° S 05:54:41 18° SE 05:54:41 18° SE
ADEOS 3.5 05:50:16 10° SSE 05:55:35 71° ENE 06:00:51 10° N
ERBS 3.3 05:53:41 10° SW 05:56:13 29° S 05:56:13 29° S
Cosmos 1459 Rocket 4.0 05:51:30 10° S 05:57:43 83° W 06:03:58 10° N
RESURS DK-1 2.3 05:53:56 10° SSW 05:58:08 61° ESE 06:00:20 26° NE
USA 306 2.8 05:56:17 10° WSW 06:00:33 88° NNW 06:02:19 34° ENE
Cosmos 2100 Rocket 4.3 05:55:09 10° SSW 06:01:31 72° W 06:07:44 10° N
USA 307 2.8 05:59:52 10° WSW 06:04:08 88° SSE 06:05:36 40° ENE
CZ-2D R/B 3.3 06:06:28 51° E 06:06:38 52° E 06:10:24 10° N
Meteor 2-6 Rocket 4.2 06:02:18 10° S 06:07:56 56° ESE 06:13:21 10° NNE
Landsat 5 4.3 06:04:35 10° N 06:09:01 57° W 06:13:23 10° SSW
GEOS 3 Rocket 4.5 06:10:34 30° ENE 06:10:39 30° ENE 06:15:13 10° N
USA 281 3.3 06:05:45 19° SE 06:10:41 57° ENE 06:17:11 10° N
Aureole 1 Rocket 4.2 06:03:29 10° SSW 06:11:12 86° WNW 06:17:12 10° NNE
CZ-4C R/B 2.9 06:10:13 10° N 06:13:27 77° WNW 06:16:49 10° SSW
[s.n.52708] 4.1 06:12:05 10° WSW 06:14:19 32° SW 06:14:19 32° SW
[s.n.52707] 4.1 06:12:12 10° WSW 06:14:25 32° SW 06:14:25 32° SW
[s.n.52703] 4.1 06:12:20 10° WSW 06:14:32 32° SW 06:14:32 32° SW
[s.n.52705] 4.1 06:12:26 10° WSW 06:14:39 32° SW 06:14:39 32° SW
[s.n.52706] 4.1 06:12:33 10° WSW 06:14:45 32° SW 06:14:45 32° SW
[s.n.52701] 4.1 06:12:40 10° WSW 06:14:52 32° SW 06:14:52 32° SW
[s.n.52704] 4.1 06:12:46 10° WSW 06:14:58 32° SW 06:14:58 32° SW
[s.n.52699] 4.1 06:12:52 10° WSW 06:15:05 32° SW 06:15:05 32° SW
[s.n.52702] 4.1 06:12:59 10° WSW 06:15:11 32° SW 06:15:11 32° SW
[s.n.52697] 4.1 06:13:06 10° WSW 06:15:18 32° SW 06:15:18 32° SW
[s.n.52700] 4.2 06:13:13 10° WSW 06:15:24 32° SW 06:15:24 32° SW
[s.n.52695] 4.2 06:13:20 10° WSW 06:15:31 32° SW 06:15:31 32° SW
[s.n.52698] 4.2 06:13:27 10° WSW 06:15:38 32° SW 06:15:38 32° SW
[s.n.52693] 4.2 06:13:34 10° WSW 06:15:45 32° SW 06:15:45 32° SW
[s.n.52696] 4.2 06:13:41 10° WSW 06:15:51 32° SW 06:15:51 32° SW
[s.n.52691] 4.2 06:13:48 10° WSW 06:15:58 31° SW 06:15:58 31° SW
Cosmos 1151 Rocket 3.8 06:12:16 10° S 06:15:19 37° SSE 06:15:19 37° SSE
[s.n.52689] 4.2 06:13:55 10° WSW 06:16:04 31° SW 06:16:04 31° SW
[s.n.52694] 4.2 06:14:02 10° WSW 06:16:11 31° SW 06:16:11 31° SW
[s.n.52692] 4.2 06:14:09 10° WSW 06:16:18 31° SW 06:16:18 31° SW
[s.n.52687] 4.2 06:14:15 10° WSW 06:16:24 31° SW 06:16:24 31° SW
[s.n.52685] 4.2 06:14:22 10° WSW 06:16:31 31° SW 06:16:31 31° SW
[s.n.52690] 4.2 06:14:29 10° WSW 06:16:37 31° SW 06:16:37 31° SW
[s.n.52688] 4.2 06:14:36 10° WSW 06:16:44 31° SW 06:16:44 31° SW
[s.n.52683] 4.2 06:14:43 10° WSW 06:16:51 31° SW 06:16:51 31° SW
[s.n.52686] 4.2 06:14:50 10° WSW 06:16:58 31° SW 06:16:58 31° SW
[s.n.52681] 4.2 06:14:58 10° WSW 06:17:05 31° SW 06:17:05 31° SW
[s.n.52679] 4.2 06:15:04 10° WSW 06:17:11 31° SW 06:17:11 31° SW
[s.n.52684] 4.2 06:15:11 10° WSW 06:17:18 31° SW 06:17:18 31° SW
[s.n.52682] 4.2 06:15:18 10° WSW 06:17:24 31° SW 06:17:24 31° SW
[s.n.52677] 4.2 06:15:25 10° WSW 06:17:31 31° SW 06:17:31 31° SW
[s.n.52680] 4.3 06:15:33 10° WSW 06:17:38 31° SW 06:17:38 31° SW
[s.n.52675] 4.3 06:15:39 10° WSW 06:17:45 31° SW 06:17:45 31° SW
[s.n.52678] 4.3 06:15:47 10° WSW 06:17:52 30° SW 06:17:52 30° SW
[s.n.52673] 4.3 06:15:54 10° WSW 06:17:59 30° SW 06:17:59 30° SW
[s.n.52676] 4.3 06:16:01 10° WSW 06:18:06 30° SW 06:18:06 30° SW
[s.n.52671] 4.3 06:16:08 10° WSW 06:18:13 30° SW 06:18:13 30° SW
[s.n.52669] 4.3 06:16:15 10° WSW 06:18:19 30° SW 06:18:19 30° SW
[s.n.52674] 4.3 06:16:22 10° WSW 06:18:26 30° SW 06:18:26 30° SW
[s.n.52672] 4.3 06:16:28 10° WSW 06:18:33 30° SW 06:18:33 30° SW
Cosmos 1812 3.0 06:15:27 10° SSW 06:19:20 68° W 06:23:11 10° N
[s.n.52667] 4.3 06:16:36 10° WSW 06:18:40 30° SW 06:18:40 30° SW
[s.n.52665] 4.3 06:16:44 10° WSW 06:18:47 30° SW 06:18:47 30° SW
[s.n.52670] 4.3 06:16:51 10° WSW 06:18:54 30° SW 06:18:54 30° SW
[s.n.52668] 4.3 06:16:58 10° WSW 06:19:01 30° SW 06:19:01 30° SW
[s.n.52666] 4.3 06:17:05 10° WSW 06:19:08 30° SW 06:19:08 30° SW
[s.n.52663] 4.3 06:17:12 10° WSW 06:19:15 30° SW 06:19:15 30° SW
[s.n.52662] 4.3 06:17:20 10° WSW 06:19:21 30° SW 06:19:21 30° SW
[s.n.52664] 4.3 06:17:27 10° WSW 06:19:29 30° SW 06:19:29 30° SW
[s.n.52661] 4.3 06:17:35 10° WSW 06:19:36 30° SW 06:19:36 30° SW
[s.n.52660] 4.4 06:17:41 10° WSW 06:19:43 30° SW 06:19:43 30° SW
[s.n.52656] 4.4 06:17:48 10° WSW 06:19:49 29° SW 06:19:49 29° SW
[s.n.52658] 4.4 06:17:56 10° WSW 06:19:57 29° SW 06:19:57 29° SW
[s.n.52659] 4.4 06:18:02 10° WSW 06:20:03 29° SW 06:20:03 29° SW
[s.n.52657] 4.4 06:18:11 10° WSW 06:20:11 29° SW 06:20:11 29° SW
Cosmos 2061 Rocket 4.0 06:14:55 10° S 06:21:26 88° E 06:27:47 10° N
Meteor PRIRODA 3.9 06:22:10 35° S 06:23:36 66° WSW 06:27:16 10° NNW
Cosmos 1862 4.2 06:20:56 10° N 06:23:27 37° NNE 06:23:27 37° NNE
USA 215 4.1 06:20:06 10° NNE 06:26:27 48° NW 06:32:50 10° WSW
Cosmos 1980 Rocket 2.5 06:21:35 10° SSW 06:27:12 66° WNW 06:32:46 10° NNE
ARGOS 3.2 06:27:22 51° E 06:27:53 52° E 06:33:09 10° N
NOAA 6 3.9 06:27:40 33° SSE 06:30:01 73° ENE 06:35:10 10° N
SJ 16-02 2.4 06:27:15 10° SSW 06:29:55 32° S 06:29:55 32° S
Cosmos 2123 Rocket 4.1 06:25:24 10° N 06:31:47 83° W 06:38:14 10° S
Cosmos 1725 Rocket 4.2 06:26:54 10° SSW 06:33:13 75° W 06:39:29 10° N
USA 308 3.1 06:30:32 10° WSW 06:34:45 63° NNW 06:35:04 61° N
Cosmos 2322 Rocket 3.0 06:29:27 10° SSW 06:33:46 35° SSE 06:33:46 35° SSE
SMAP 3.2 06:31:55 22° S 06:34:59 74° WSW 06:39:41 10° NNW
Cosmos 2333 Rocket 3.9 06:32:42 10° S 06:35:14 18° SSE 06:35:14 18° SSE
Cosmos 2082 Rocket 2.1 06:33:19 10° NNW 06:38:59 86° WSW 06:40:57 43° SSE
H-2A R/B 3.6 06:41:54 27° S 06:41:54 27° S 06:44:00 10° S
AQUARIUS 4.4 06:41:53 39° S 06:43:29 70° WSW 06:48:00 10° NNW
Cosmos 1777 Rocket 4.2 06:44:01 10° SSW 06:48:25 58° S 06:48:25 58° S
Cosmos 1354 Rocket 4.0 06:44:03 10° SSW 06:49:23 79° WNW 06:50:58 46° N
Cosmos 967 Rocket 4.3 06:50:50 10° NNW 06:57:04 79° NE 06:57:32 74° ESE
Radarsat Rocket 4.4 06:51:27 16° SSE 06:57:24 81° ENE 07:05:26 10° NNW
USA 305 4.1 06:54:00 10° WSW 06:57:42 38° NW 06:57:42 38° NW
Cosmos 2219 Rocket 4.2 06:54:53 10° S 06:56:35 16° S 06:56:35 16° S
IRAS Rocket 4.3 07:02:25 71° S 07:02:25 71° S 07:07:27 10° SSW
Lacrosse 5 2.7 06:56:52 10° SW 07:00:46 43° SSW 07:00:46 43° SSW
Lacrosse 5 rocket 3.6 07:07:44 10° SW 07:09:02 18° SW 07:09:02 18° SW
COSMOS 2406 4.3 07:06:48 10° WNW 07:12:09 40° SW 07:14:15 29° S
SL-16 R/B 2.6 07:08:19 10° SSW 07:12:45 55° SSW 07:12:45 55° SSW
H-2A R/B 3.8 07:29:17 17° SSW 07:32:05 28° WSW 07:36:15 10° WNW
Cosmos 2360 Rocket 3.9 07:34:16 10° SSW 07:36:27 24° SSW 07:36:27 24° SSW
USA 281 4.4 07:52:38 30° S 07:54:57 38° SW 08:00:58 10° WNW
SJ 16-02 4.5 08:06:37 10° SW 08:06:54 11° SW 08:06:54 11° SW
Cosmos 2322 Rocket 4.3 08:13:31 10° SW 08:15:37 22° SW 08:15:37 22° SW
Cosmos 2082 Rocket 4.4 08:19:41 10° W 08:22:50 20° SW 08:22:50 20° SW
